Location: Bronxville
(40.9382°N, 73.8321°W)
Time: 19:02:47
(UTC+00:00)

Daily predictions for brighter satellites

Satellite Brightness Start Highest point End
(mag) Time Altitude Azimuth Time Altitude Azimuth Time Altitude Azimuth
Unknown 4.4 22:35:18 10° WSW 22:39:20 50° NNW 22:43:23 10° NE
Unknown 4.3 22:35:50 10° WSW 22:39:52 51° NNW 22:43:56 10° NE
Unknown 4.4 22:36:53 10° WSW 22:40:55 51° NNW 22:44:58 10° NE
Cosmos 1242 Rocket 4.1 22:38:38 10° NNE 22:41:07 17° ENE 22:43:35 10° ESE
Cosmos 1726 Rocket 4.0 22:38:00 10° SSE 22:42:06 39° E 22:46:12 10° NNE
Atlas Centaur 2 4.5 22:38:47 10° WSW 22:43:16 19° SSW 22:47:09 10° SSE
Unknown 4.4 22:40:07 10° WSW 22:44:08 50° NNW 22:48:12 10° NE
Cosmos 1486 Rocket 4.2 22:41:04 10° NNW 22:46:25 84° WSW 22:51:45 10° SSE
Okean-O 2.8 22:43:34 10° S 22:48:00 82° WSW 22:52:28 10° NNW
Cosmos 1939 Rocket 4.4 22:47:57 10° ESE 22:50:26 16° ENE 22:52:58 10° NNE
Cosmos 1354 Rocket 4.1 22:46:42 10° N 22:51:51 54° ENE 22:56:57 10° SE
Cosmos 2058 Rocket 3.7 22:48:41 10° SSE 22:52:35 33° E 22:56:30 10° NNE
ASTEX 1 3.6 22:48:20 10° NNE 22:53:09 49° E 22:57:57 10° SSE
COSMOS 2406 4.2 22:48:23 10° N 22:53:17 28° NE 22:58:09 10° ESE
Cosmos 2082 Rocket 4.1 22:52:24 10° NNE 22:53:28 10° NE 22:54:31 10° NE
Cosmos 2228 3.1 22:50:15 10° S 22:54:33 59° E 22:58:51 10° NNE
Lacrosse 5 rocket 1.7 22:52:51 10° NNW 22:56:26 39° NE 23:00:07 10° ESE
OAO 3 Rocket 4.3 22:52:06 10° SW 22:56:32 34° SSE 23:00:50 11° ESE
OAO 2 Rocket 4.2 22:51:42 10° WSW 22:56:41 43° S 23:01:35 11° ESE
CSL-04 Debris 4.4 22:55:17 10° SE 23:00:30 50° ENE 23:05:47 10° N
Cosmos 968 Rocket 3.5 22:55:52 10° NNW 23:01:10 75° ENE 23:06:24 10° SSE
CZ-4C R/B 3.1 22:53:52 10° NW 23:01:17 88° SW 23:09:36 10° SSE
FengYun 1-2 T 4.3 22:56:24 10° SSE 23:01:59 67° ENE 23:07:34 10° N
YAOGAN 6 2.7 23:00:06 10° SSE 23:03:42 55° ENE 23:07:18 10° N
Cosmos 1908 4.3 23:00:47 10° SE 23:03:58 24° E 23:07:11 10° NE
Ariane Rocket 4.0 23:00:27 10° ESE 23:04:36 26° ENE 23:08:47 10° N
Cosmos 921 Rocket 3.1 23:01:28 10° S 23:05:54 60° ESE 23:10:20 10° NNE
CZ-4 R/B 4.3 23:02:56 10° SSE 23:07:02 71° ENE 23:11:09 10° N
Cosmos 1470 4.5 23:03:53 10° SSW 23:07:35 37° WNW 23:11:19 10° N
CZ-4 R/B 1.4 23:05:23 10° SSE 23:09:30 72° ENE 23:13:42 10° N
Cosmos 1328 4.3 23:07:13 10° N 23:10:56 36° ENE 23:14:35 10° SE
Cosmos 1992 Rocket 4.4 23:08:12 10° SSW 23:13:24 69° WNW 23:18:38 10° NNE
COSMO-SKYMED 1 2.7 23:09:32 10° N 23:13:55 79° WNW 23:18:14 10° SSW
Cosmos 1844 Rocket 3.2 23:10:40 10° SW 23:16:17 64° WNW 23:21:54 10° NNE
Cosmos 2084 4.2 23:11:49 10° SW 23:16:18 58° NW 23:20:44 10° NNE
Meteor 2-10 4.0 23:11:29 10° S 23:16:28 54° E 23:21:23 10° NNE
Cosmos 1503 Rocket 4.1 23:11:57 10° NNW 23:17:09 82° WSW 23:22:18 10° SSE
Cosmos 2239 Rocket 4.5 23:11:19 10° N 23:17:30 90° E 23:23:38 10° S
Meteor 1-16 Rocket 4.1 23:12:46 10° S 23:18:22 76° E 23:23:50 10° NNE
Unknown 4.4 23:17:50 10° NNW 23:19:41 17° NNE 23:20:02 16° NE
USA 116 3.1 23:20:05 10° NNE 23:23:14 83° ESE 23:26:33 10° SSW
Cosmos 1821 Rocket 4.2 23:17:53 10° NNW 23:23:59 73° W 23:30:06 10° S
Cosmos 1605 Rocket 4.2 23:18:09 10° N 23:24:07 47° ENE 23:29:58 10° SSE
USA 238 DEB 4.5 23:19:16 10° SSE 23:24:39 27° ESE 23:28:15 17° ENE
USA 238 4.5 23:19:24 10° SSE 23:24:46 26° ESE 23:28:16 17° ENE
Cosmos 1953 Rocket 3.7 23:22:18 10° NNW 23:26:41 74° W 23:31:00 10° S
Cosmos 1727 Rocket 4.5 23:22:36 10° SSE 23:28:07 35° E 23:33:38 10° NNE
H-2A R/B 3.7 23:30:25 16° NE 23:30:25 16° NE 23:33:06 10° NNE
Lacrosse 5 3.7 23:28:13 10° NNW 23:31:35 17° NNE 23:33:32 14° NE
Cosmos 2278 Rocket 2.5 23:27:39 10° S 23:32:56 42° ESE 23:38:15 10° NE
Cosmos 1844 4.4 23:30:59 10° SW 23:36:34 56° WNW 23:42:15 10° NNE
Cosmos 292 Rocket 3.6 23:32:44 10° SSW 23:37:28 80° ESE 23:42:15 10° NNE
USA 234 4.2 23:35:59 22° ESE 23:37:35 24° SE 23:42:43 10° S
Cosmos 1934 Rocket 4.0 23:32:04 10° N 23:38:25 88° W 23:44:47 10° S
Cosmos 1535 Rocket 4.5 23:32:48 10° N 23:39:03 86° W 23:45:11 10° S
CZ-2D R/B 3.1 23:40:00 10° SSE 23:43:49 75° ENE 23:47:40 10° N
Cosmos 482 Debris 4.0 23:39:47 10° NW 23:44:19 54° NNE 23:44:47 48° ENE
ATLAS 5 CENTAUR R/B 3.9 23:43:48 10° W 23:47:08 21° NW 23:50:44 10° N
SL-4 R/B 1.9 23:43:40 10° WNW 23:47:26 65° SW 23:48:39 37° SSE
Cosmos 1356 4.2 23:47:12 10° SSW 23:50:33 52° WNW 23:53:56 10° N
NOSS 3-2 (A) 4.0 23:46:43 10° S 23:51:22 31° ESE 23:51:22 31° ESE
